Dewpoint
69 68 67 67 68 69 68 68 68 69 68 69 69 69 68 62 63 65 68 72 74 72 72 72 73 74 74 75 75 76 75 75 74 75 75 74 74 73 74 74 74 74 73
66 65 66 67 68 68 68 68 68 67 67 65 60 67 67 62 63 64 67 69 74 73 73 73 74 75 74 75 75 74 74 75 74 73 74 74 75 74 73 74 74 74 73
66 66 68 69 69 68 67 67 67 68 66 61 60 61 63 62 62 63 65 67 70 73 73 73 74 74 73 72 72 72 73 75 75 74 74 75 75 75 74 74 74 74 73
67 70 69 70 69 69 67 70 69 69 65 62 60 62 62 62 63 63 64 65 68 69 71 73 73 73 73 72 72 72 73 73 75 75 74 75 75 75 74 73 74 75 74
70 70 71 70 69 67 69 69 68 67 66 63 62 63 62 63 65 64 66 66 67 70 71 73 74 73 71 71 73 74 73 73 75 76 76 75 75 74 74 74 74 74 75
71 70 69 68 68 66 65 68 66 66 66 66 64 63 64 66 66 66 66 67 68 70 69 69 71 70 71 69 71 73 73 73 74 77 76 75 74 74 75 75 74 74 75
71 70 68 66 65 65 65 68 68 62 64 68 62 64 64 63 63 65 66 67 68 70 70 69 67 65 67 68 70 71 72 73 74 77 76 74 73 75 75 74 74 74 73
71 71 68 65 63 63 66 66 66 62 64 68 63 65 59 62 63 65 66 67 66 68 70 70 69 69 69 68 68 70 72 73 75 76 74 74 74 75 74 74 74 73 73
71 71 69 65 64 67 68 67 64 64 63 65 67 64 61 58 60 62 62 65 66 65 66 70 70 69 69 69 70 70 71 72 76 72 73 74 74 75 75 74 74 73 73
71 70 70 66 68 66 69 68 65 67 63 59 63 66 63 62 59 60 61 64 65 65 66 66 70 68 68 68 69 71 72 73 73 71 73 73 74 75 75 75 75 74 74
71 71 70 69 67 66 66 69 67 66 67 64 60 63 62 63 63 62 59 61 65 66 66 65 67 68 68 69 70 71 73 72 71 72 72 73 73 73 73 73 73 74 75
69 70 71 70 68 66 69 70 70 68 68 66 63 64 65 64 63 64 61 62 62 65 66 66 66 68 69 69 71 73 73 71 71 70 71 72 72 72 72 72 72 72 71
68 69 70 71 70 69 71 71 71 71 71 69 68 68 67 66 67 66 64 64 64 63 64 66 66 68 68 71 72 73 73 71 70 69 69 70 70 70 70 70 70 70 71
68 68 69 71 70 71 71 71 71 70 71 70 70 70 70 70 69 68 66 65 62 61 62 64 68 68 69 70 72 73 72 69 69 68 68 68 68 68 68 68 68 68 69
69 69 69 69 71 70 71 71 71 71 71 70 69 69 70 70 69 69 68 66 65 61 60 65 66 69 70 70 71 71 71 69 68 67 66 66 66 66 66 66 67 67 67
69 70 69 70 71 71 71 70 70 71 70 70 70 69 69 69 70 69 68 67 67 65 62 65 68 68 68 71 70 71 70 68 67 66 65 65 65 65 65 65 65 65 66
70 70 69 70 71 70 71 71 70 70 70 70 70 69 69 69 69 69 69 68 68 67 64 65 68 70 68 65 68 70 68 65 65 65 64 64 63 63 62 62 62 63 64
70 70 70 71 70 70 70 71 71 72 71 70 70 70 69 70 69 69 69 68 68 68 66 64 66 67 67 66 68 68 68 64 64 61 61 61 61 60 59 59 59 59 60
70 70 70 70 70 70 71 71 71 71 71 71 70 70 70 69 69 69 68 68 68 69 68 68 66 67 67 68 67 68 65 63 61 59 60 59 59 57 57 56 56 55 55
70 70 70 71 71 71 71 71 71 70 71 71 71 71 71 70 69 68 68 68 68 68 67 66 64 65 66 67 68 65 67 64 61 58 57 58 58 57 55 55 55 54 54
70 70 70 70 71 71 70 70 71 71 70 70 70 70 70 70 70 68 69 69 69 68 67 66 64 64 64 64 64 65 64 66 64 61 57 58 59 52 54 57 53 52 53
70 70 69 70 70 70 65 65 68 69 69 69 68 68 69 68 67 66 66 65 67 68 67 66 64 63 62 64 64 64 64 65 63 65 59 58 59 56 46 45 52 53 52
69 69 69 69 67 62 63 64 65 66 66 67 66 68 69 64 64 65 62 63 63 61 62 64 63 64 64 64 60 60 63 63 63 66 62 59 58 57 50 49 53 52 53
69 68 67 64 61 58 59 60 64 65 67 65 64 66 62 57 55 58 63 65 61 56 54 55 59 59 55 53 54 55 57 60 62 63 64 63 59 58 56 53 53 51 51
66 67 64 60 58 56 58 59 62 66 64 61 59 59 56 53 55 55 59 61 63 61 59 60 59 58 56 57 57 55 52 53 58 62 56 61 59 57 55 54 55 54 55
63 61 59 58 58 60 58 59 63 66 59 58 58 58 57 56 53 53 52 56 60 60 58 60 63 57 56 57 57 52 51 48 52 58 51 52 59 50 48 55 55 56 56
Lifted_Index
-2 -1 -1 -1 -2 -2 -2 -2 -2 -2 -2 -2 -1 -2 -3 -3 -1 0 -1 -3 -4 -5 -6 -6 -7 -7 -7 -7 -7 -7 -7 -6 -6 -6 -6 -6 -5 -5 -6 -6 -6 -6 -6
-2 -1 -1 -2 -2 -2 -2 -2 -2 -2 -2 -1 -1 -1 -2 -2 -1 -0 -1 -3 -4 -5 -6 -6 -7 -7 -7 -7 -7 -7 -6 -6 -6 -6 -6 -6 -5 -5 -6 -6 -6 -6 -6
-2 -2 -2 -2 -2 -2 -3 -3 -3 -3 -2 -1 0 -0 -1 -2 -1 -1 -2 -3 -4 -5 -5 -6 -6 -6 -6 -6 -6 -6 -6 -6 -6 -6 -6 -5 -5 -5 -5 -6 -6 -6 -6
-2 -2 -3 -3 -2 -2 -3 -3 -3 -3 -2 -1 -0 -0 -1 -1 -1 -2 -2 -3 -3 -4 -4 -5 -5 -5 -4 -4 -5 -5 -5 -6 -6 -6 -6 -5 -5 -5 -5 -5 -6 -6 -6
-3 -3 -3 -3 -2 -2 -2 -3 -3 -3 -2 -2 -1 -1 -2 -2 -2 -2 -3 -3 -3 -3 -3 -4 -4 -3 -3 -4 -4 -5 -5 -5 -6 -6 -6 -5 -5 -4 -5 -5 -5 -5 -6
-3 -3 -3 -2 -2 -2 -2 -2 -3 -3 -3 -2 -2 -2 -2 -2 -2 -3 -3 -3 -3 -3 -3 -2 -2 -1 -1 -2 -3 -4 -4 -4 -5 -6 -5 -4 -4 -4 -5 -5 -5 -5 -5
-3 -3 -2 -2 -2 -1 -1 -2 -3 -3 -3 -3 -3 -2 -2 -2 -2 -3 -3 -3 -3 -2 -2 -1 -0 0 -0 -1 -1 -2 -3 -4 -5 -5 -4 -3 -3 -4 -4 -4 -4 -4 -4
-3 -3 -2 -2 -1 -1 -1 -2 -2 -2 -2 -2 -3 -2 -2 -2 -2 -2 -2 -3 -2 -1 -1 -1 -0 -0 -0 -1 -1 -2 -3 -4 -4 -4 -3 -2 -3 -4 -4 -4 -4 -4 -4
-3 -3 -3 -2 -1 -1 -1 -2 -2 -2 -2 -2 -2 -2 -2 -2 -2 -2 -2 -2 -2 -1 -1 -1 -1 -1 -1 -1 -2 -2 -3 -4 -4 -3 -2 -2 -3 -3 -4 -4 -4 -4 -4
-4 -4 -3 -3 -2 -2 -2 -2 -2 -2 -2 -2 -1 -1 -1 -1 -1 -1 -1 -2 -2 -2 -1 -1 -1 -1 -1 -2 -2 -2 -3 -3 -3 -2 -2 -2 -3 -3 -3 -4 -4 -4 -4
-4 -4 -4 -3 -2 -2 -2 -3 -3 -3 -2 -2 -1 -1 -1 -1 -2 -2 -2 -1 -2 -2 -1 -1 -1 -1 -1 -2 -2 -2 -3 -2 -1 -1 -1 -2 -2 -3 -3 -3 -3 -3 -3
-3 -4 -4 -3 -3 -2 -3 -3 -3 -3 -3 -3 -2 -2 -2 -2 -2 -2 -2 -1 -1 -1 -1 -1 -1 -1 -1 -2 -2 -2 -2 -1 -1 -0 -0 -1 -1 -1 -2 -2 -2 -2 -2
-3 -3 -3 -3 -3 -3 -3 -4 -4 -4 -3 -3 -3 -3 -3 -3 -3 -3 -2 -2 -2 -1 -1 -1 -1 -1 -1 -2 -2 -2 -2 -1 -1 -0 -0 -0 -0 0 -0 -0 -1 -1 -1
-3 -3 -3 -3 -3 -3 -4 -4 -4 -4 -4 -3 -3 -3 -3 -3 -3 -3 -2 -2 -2 -1 -1 -1 -1 -1 -1 -2 -2 -2 -2 -1 -1 -1 -0 -0 0 1 1 1 0 0 0
-3 -3 -3 -3 -3 -3 -3 -3 -3 -3 -3 -3 -3 -3 -3 -3 -3 -3 -3 -2 -2 -1 -1 -1 -1 -2 -2 -2 -2 -2 -2 -2 -1 -1 -1 -0 0 1 2 1 1 1 1
-3 -3 -3 -3 -3 -3 -3 -4 -3 -3 -3 -3 -3 -3 -3 -3 -3 -3 -3 -2 -2 -2 -1 -1 -1 -2 -2 -1 -1 -1 -2 -2 -1 -1 -1 -1 0 1 2 2 2 2 2
-3 -3 -3 -3 -3 -3 -3 -4 -3 -3 -3 -3 -3 -3 -3 -3 -2 -3 -2 -2 -2 -2 -1 -1 -1 -2 -1 -1 -1 -1 -1 -1 -1 -1 -1 -0 0 1 1 2 3 3 3
-4 -4 -3 -3 -3 -3 -3 -3 -3 -4 -4 -3 -3 -3 -3 -3 -3 -2 -2 -2 -2 -2 -2 -1 -1 -1 -1 -1 -1 -0 -0 -0 -0 -0 -0 -0 0 1 1 2 3 4 4
-4 -4 -4 -3 -3 -3 -3 -4 -4 -4 -4 -4 -3 -3 -3 -3 -3 -3 -2 -2 -2 -2 -2 -2 -1 -1 -1 -1 -1 -0 0 0 0 0 0 0 1 1 1 2 3 4 4
-4 -4 -4 -4 -3 -3 -4 -4 -4 -4 -4 -4 -4 -3 -3 -3 -3 -3 -3 -2 -2 -2 -2 -2 -1 -1 -0 -0 -0 -0 0 0 0 0 0 1 1 1 2 3 4 4 4
-3 -3 -3 -4 -4 -4 -4 -4 -4 -4 -4 -4 -4 -3 -3 -3 -3 -3 -2 -2 -2 -2 -2 -2 -1 -1 0 0 1 1 1 1 0 0 0 0 0 0 1 3 4 4 3
-2 -2 -3 -3 -4 -4 -4 -4 -4 -4 -4 -3 -3 -3 -3 -3 -2 -2 -2 -1 -1 -1 -1 -1 -1 -1 0 1 1 1 1 1 1 0 1 0 0 -0 0 2 3 3 3
-2 -2 -2 -3 -3 -4 -4 -4 -4 -3 -3 -3 -2 -2 -2 -2 -2 -1 -1 -1 -0 -0 -0 -0 -0 0 1 1 2 2 2 2 1 1 1 0 0 -0 0 1 3 3 3
-2 -2 -2 -2 -3 -3 -4 -3 -3 -3 -2 -2 -2 -1 -1 -1 -1 -1 -0 0 0 0 0 1 1 1 1 2 2 2 3 3 2 2 1 1 1 1 1 1 2 3 3
-2 -2 -2 -2 -3 -3 -3 -2 -2 -2 -2 -1 -1 -1 -1 -1 -0 0 0 1 1 1 1 1 1 2 2 2 2 3 2 2 2 2 2 2 2 2 1 1 2 3 4
-2 -2 -2 -2 -2 -2 -2 -2 -1 -1 -1 -1 -1 -1 -1 -0 0 1 1 1 1 2 2 2 1 2 2 2 3 3 3 2 2 2 3 3 3 2 2 1 2 2 3